Middletown, OH

7:47 AM EDT on March 30, 2017 (GMT -0400)
Hook Field Municipal

Weather History for KMWO - January, 2013

Change the Weather History Date:

Monday, January 7, 2013

  Actual Average (KFFO) Record (KFFO)
Temperature  
Mean Temperature 27 °F -  
Max Temperature 37 °F 36 °F 66 °F (2008)
Min Temperature 17 °F 21 °F -8 °F (2014)
Degree Days  
Heating Degree Days 38    
Moisture  
Dew Point 25 °F    
Average Humidity 89    
Maximum Humidity 100    
Minimum Humidity 68    
Precipitation  
Precipitation 0.00 in - - ()
Sea Level Pressure  
Sea Level Pressure 30.38 in    
Wind  
Wind Speed 2 mph (SSW)    
Max Wind Speed 10 mph    
Max Gust Speed -    
Visibility 7 miles    
Events Fog    
Averages and records for this station are not official NWS values.
T = Trace of Precipitation, MM = Missing Value Source: NWS Daily Summary

Daily Weather History Graph

Daily Weather History Graph

Search for Another Location

Airport or City:

Trip Planner

Search our weather history database for the weather conditions in past years. The results will help you decide how hot, cold, wet, or windy it might be!

Date:

Astronomy

Jan. 07, 2013 Rise Set
Actual Time 7:58 AM EST 5:30 PM EST
Civil Twilight 7:28 AM EST 6:00 PM EST
Nautical Twilight 6:54 AM EST 6:33 PM EST
Astronomical Twilight 6:22 AM EST 7:06 PM EST
Moon 3:21 AM EST (1/7) 1:40 PM EST (1/7)
Length of Visible Light 10h 31m
Length of Day
9h 31m
Waning Crescent, 23% of the Moon is Illuminated
Jan 7
Waning Crescent
Jan 11
New
Jan 18
First Quarter
Jan 26
Full
Feb 3
Last Quarter

Hourly Weather History & Observations

Time (EST) Temp. Windchill Dew Point Humidity Pressure Visibility Wind Dir Wind Speed Gust Speed Precip Events Conditions
12:35 AM 29.1 °F - 26.1 °F 88% 30.37 in 10.0 mi Calm Calm - N/A   Overcast
12:55 AM 29.1 °F - 26.1 °F 88% 30.37 in 10.0 mi Calm Calm - N/A   Overcast
1:15 AM 28.9 °F - 25.9 °F 88% 30.37 in 10.0 mi Calm Calm - N/A   Overcast
1:35 AM 28.9 °F 25.2 °F 25.9 °F 88% 30.37 in 10.0 mi NW 3.5 mph - N/A   Overcast
1:55 AM 27.9 °F - 25.2 °F 90% 30.37 in 10.0 mi Calm Calm - N/A   Mostly Cloudy
2:15 AM 27.9 °F - 25.9 °F 92% 30.38 in 7.0 mi Calm Calm - N/A   Scattered Clouds
2:35 AM 25.3 °F - 23.9 °F 94% 30.39 in 7.0 mi Calm Calm - N/A   Scattered Clouds
2:55 AM 25.3 °F - 24.4 °F 96% 30.38 in 7.0 mi Calm Calm - N/A   Clear
3:15 AM 25.3 °F - 24.8 °F 98% 30.39 in 5.0 mi Calm Calm - N/A   Clear
3:35 AM 27.0 °F - 26.2 °F 97% 30.39 in 7.0 mi Calm Calm - N/A   Clear
3:55 AM 25.3 °F - 25.3 °F 100% 30.40 in 4.0 mi Calm Calm - N/A   Clear
4:15 AM 21.6 °F - 21.6 °F 100% 30.41 in 3.0 mi Calm Calm - N/A   Clear
4:35 AM 21.6 °F - 21.6 °F 100% 30.40 in 2.5 mi Calm Calm - N/A   Clear
4:55 AM 20.8 °F - 20.8 °F 100% 30.41 in 2.5 mi Calm Calm - N/A   Clear
5:15 AM 20.7 °F - 20.7 °F 100% 30.41 in 1.2 mi Calm Calm - N/A   Mist
5:35 AM 20.3 °F - 20.3 °F 100% 30.42 in 0.2 mi Calm Calm - N/A Fog Light Freezing Fog
5:55 AM 20.1 °F - 20.1 °F 100% 30.43 in 2.0 mi Calm Calm - N/A   Clear
6:15 AM 20.1 °F - 20.1 °F 100% 30.44 in 1.2 mi Calm Calm - N/A   Mist
6:35 AM 19.0 °F - 19.0 °F 100% 30.44 in 1.5 mi Calm Calm - N/A   Mist
6:55 AM 19.4 °F - 19.4 °F 100% 30.45 in 1.5 mi Calm Calm - N/A   Mist
7:15 AM 18.5 °F - 18.5 °F 100% 30.46 in 2.0 mi Calm Calm - N/A   Clear
7:35 AM 19.0 °F - 19.0 °F 100% 30.46 in 3.0 mi Calm Calm - N/A   Clear
7:55 AM 17.6 °F - 17.6 °F 100% 30.47 in 3.0 mi Calm Calm - N/A   Clear
8:15 AM 17.6 °F - 17.6 °F 100% 30.47 in 3.0 mi Calm Calm - N/A   Clear
8:35 AM 17.6 °F - 17.6 °F 100% 30.48 in 2.5 mi Calm Calm - N/A   Clear
8:55 AM 18.7 °F - 18.7 °F 100% 30.48 in 2.5 mi Calm Calm - N/A   Clear
9:15 AM 19.8 °F - 19.8 °F 100% 30.49 in 1.5 mi Calm Calm - N/A   Mist
9:35 AM 20.3 °F - 20.3 °F 100% 30.49 in 1.5 mi Calm Calm - N/A   Mist
9:55 AM 23.0 °F 18.4 °F 23.0 °F 100% 30.49 in 3.0 mi SSW 3.5 mph - N/A   Clear
10:15 AM 27.9 °F - 27.9 °F 100% 30.49 in 5.0 mi Calm Calm - N/A   Clear
10:35 AM 27.9 °F - 27.9 °F 100% 30.49 in 5.0 mi Calm Calm - N/A   Clear
10:55 AM 27.9 °F - 27.9 °F 100% 30.48 in 5.0 mi Calm Calm - N/A   Clear
11:15 AM 28.8 °F - 26.6 °F 92% 30.47 in 5.0 mi Calm Calm - N/A   Clear
11:35 AM 32.4 °F 29.1 °F 29.7 °F 90% 30.46 in 5.0 mi WSW 3.5 mph - N/A   Clear
11:55 AM 32.5 °F 29.3 °F 28.4 °F 85% 30.45 in 7.0 mi South 3.5 mph - N/A   Clear
12:15 PM 32.5 °F - 28.0 °F 83% 30.44 in 7.0 mi Calm Calm - N/A   Clear
12:35 PM 35.1 °F 31.0 °F 29.1 °F 79% 30.43 in 10.0 mi South 4.6 mph - N/A   Clear
12:55 PM 35.1 °F 27.9 °F 28.2 °F 76% 30.42 in 10.0 mi South 9.2 mph - N/A   Clear
1:15 PM 35.4 °F 29.0 °F 28.0 °F 75% 30.41 in 10.0 mi SSW 8.1 mph - N/A   Clear
1:35 PM 35.6 °F 29.9 °F 28.2 °F 75% 30.40 in 10.0 mi SW 6.9 mph - N/A   Clear
1:55 PM 35.6 °F 28.0 °F 28.2 °F 75% 30.39 in 10.0 mi SW 10.4 mph - N/A   Clear
2:15 PM 35.8 °F 28.3 °F 28.2 °F 74% 30.39 in 10.0 mi SW 10.4 mph - N/A   Clear
2:35 PM 37.6 °F 31.0 °F 29.7 °F 73% 30.38 in 10.0 mi SW 9.2 mph - N/A   Clear
2:55 PM 37.6 °F 32.3 °F 29.7 °F 73% 30.37 in 10.0 mi WSW 6.9 mph - N/A   Clear
3:15 PM 37.6 °F 33.1 °F 29.7 °F 73% 30.37 in 10.0 mi SSW 5.8 mph - N/A   Clear
3:35 PM 37.6 °F 34.0 °F 29.3 °F 72% 30.36 in 10.0 mi SSW 4.6 mph - N/A   Clear
3:55 PM 37.6 °F 32.3 °F 30.0 °F 74% 30.36 in 10.0 mi SW 6.9 mph - N/A   Clear
4:15 PM 37.6 °F 31.6 °F 28.8 °F 70% 30.36 in 10.0 mi SSW 8.1 mph - N/A   Clear
4:35 PM 37.6 °F 32.3 °F 28.4 °F 69% 30.35 in 10.0 mi SSW 6.9 mph - N/A   Clear
4:55 PM 37.6 °F 30.5 °F 27.9 °F 68% 30.33 in 10.0 mi South 10.4 mph - N/A   Clear
5:15 PM 37.6 °F 32.3 °F 28.4 °F 69% 30.33 in 10.0 mi South 6.9 mph - N/A   Clear
5:35 PM 35.6 °F 29.9 °F 28.2 °F 75% 30.32 in 10.0 mi SSW 6.9 mph - N/A   Clear
6:15 PM 35.1 °F 31.0 °F 27.9 °F 75% 30.32 in 10.0 mi South 4.6 mph - N/A   Clear
6:35 PM 35.1 °F 31.0 °F 27.5 °F 74% 30.31 in 10.0 mi South 4.6 mph - N/A   Clear
6:55 PM 35.2 °F 30.3 °F 27.5 °F 73% 30.31 in 10.0 mi South 5.8 mph - N/A   Clear
7:15 PM 35.1 °F - 28.0 °F 76% 30.30 in 10.0 mi Calm Calm - N/A   Clear
7:35 PM 35.1 °F 30.1 °F 28.4 °F 77% 30.29 in 10.0 mi SSE 5.8 mph - N/A   Clear
7:55 PM 35.1 °F - 28.6 °F 77% 30.30 in 10.0 mi Calm Calm - N/A   Clear
8:15 PM 32.4 °F - 28.0 °F 84% 30.30 in 10.0 mi Calm Calm - N/A   Clear
8:35 PM 27.9 °F - 26.6 °F 95% 30.30 in 10.0 mi Calm Calm - N/A   Clear
8:55 PM 27.9 °F - 27.3 °F 98% 30.29 in 10.0 mi Calm Calm - N/A   Clear
9:15 PM 26.4 °F - 25.9 °F 98% 30.29 in 7.0 mi Calm Calm - N/A   Clear
9:35 PM 27.9 °F - 27.5 °F 99% 30.28 in 7.0 mi Calm Calm - N/A   Clear
9:55 PM 27.9 °F - 27.9 °F 100% 30.27 in 7.0 mi Calm Calm - N/A   Clear
10:15 PM 25.3 °F - 25.3 °F 100% 30.28 in 7.0 mi Calm Calm - N/A   Clear
10:35 PM 23.2 °F - 23.2 °F 100% 30.28 in 7.0 mi Calm Calm - N/A   Clear
10:55 PM 23.9 °F - 23.5 °F 99% 30.27 in 7.0 mi Calm Calm - N/A   Clear
11:15 PM 25.3 °F - 25.3 °F 100% 30.27 in 5.0 mi Calm Calm - N/A   Clear
11:35 PM 24.3 °F - 24.3 °F 100% 30.27 in 5.0 mi Calm Calm - N/A   Clear
11:55 PM 21.7 °F - 21.7 °F 100% 30.28 in 4.0 mi Calm Calm - N/A   Clear